Simultaneous Nadir Overpasses (SNOs) Predictions

Prediction of SNOs between METOP-A and TERRA Satellite Orbit:

Table of predicted SNOs for the next 14.0 days since TLE Epoch: 11/11/2017
Index Date (METOP-A) Time (METOP-A) Lat,Lon (METOP-A) SZA (METOP-A ) Date (TERRA) Time (TERRA) Lat,Lon (TERRA) SZA (TERRA ) Distance(km) Time Diff (sec)
1 11/13/2017 01:30:52 -81.37, 25.71 77.45 11/13/2017 01:31:56 -81.37, 25.72 77.42 0.49 64
2 11/13/2017 02:21:32 81.37,-166.62 102.60 11/13/2017 02:21:22 81.37,-166.57 102.60 0.92 10
3 11/15/2017 21:05:09 -81.37, 92.42 76.71 11/15/2017 21:06:09 -81.38, 92.47 76.67 1.34 60
4 11/15/2017 21:55:49 81.38, -99.95 103.34 11/15/2017 21:55:35 81.38, -99.83 103.35 2.25 14
5 11/18/2017 16:39:28 -81.37, 158.71 76.06 11/18/2017 16:40:24 -81.37, 158.75 76.03 0.74 56
6 11/18/2017 17:30:08 81.37, -33.70 103.98 11/18/2017 17:29:50 81.38, -33.57 103.99 2.22 18
7 11/21/2017 12:13:46 -81.37,-134.62 75.42 11/21/2017 12:14:38 -81.38,-134.66 75.40 1.07 52
8 11/21/2017 13:04:26 81.38, 32.92 104.62 11/21/2017 13:04:04 81.38, 32.99 104.62 1.34 22
9 11/24/2017 07:48:04 -81.37, -68.36 74.88 11/24/2017 07:48:52 -81.36, -68.55 74.89 3.35 48




NCC Satellite Simultaneous Nadir Overpasses (SNOs) Prediction Service
